Location: LDNL
(36.4545°S, 141.6685°E)
Time: 11:28:14
(UTC+10:00)

Vanguard 3 - Pass Details

Date: 28 January 2022
Orbit: 508 x 3258 km, 33.3° (Epoch: 25 May)

Event Time Altitude Azimuth Distance (km) Brightness Sun altitude
Rises 00:29:54 0° 309° (NW) 3,661 - -32.3°
Reaches altitude 10° 00:32:06 10° 314° (NW) 2,968 - -32.5°
Maximum altitude 00:39:21 51° 28° (NNE) 1,953 - -33.0°
Exits shadow 00:43:55 35° 79° (E) 2,805 9.5 -33.2°
Drops below altitude 10° 00:52:09 10° 98° (E) 5,112 11.1 -33.7°
Sets 00:57:13 0° 101° (E) 6,517 11.7 -34.0°
